Showing default

AEROCUBE 18B, 63222

Orbit data source: Space-Track

AEROCUBE 18B, 63222 is a payload satellite owned by AERO (US) in SSO that was launched on Sat, 15 Mar 2025 UTC via an FALCON 9 launch vehicle from the Air Force Western Test Range (AFWTR). Payload-class satellites include a variety of spacecraft equipped with specific instruments for various scientific and technological missions. These include communications satellites like Starlink; space stations such as the ISS; scientific satellites like the Hubble; Earth observation satellites from companies like Planet Labs, Umbra, and HawkEye 360; GPS; miniature CubeSats for education and research; and military/defense satellites.

Loading next visibility...
Identifier
63222, 2025-052N
Orbit
SSO
Country
Flag of USUS
Related business
Manufacturer
AERO
Mission
Operational Defense Technology
Bus & Motor
CUBESAT 6U, Unknown motor
Mass
10 kg wet, 10 kg dry
Launch date (UTC)
2025-03-15 (1 year ago)
Launch vehicle
FALCON 9
Launch site
Air Force Western Test Range (AFWTR)
Object type
Payload
Rocket body
Debris
Shape & HBR
Box + 2 Pan, 0.1 m
Radar Cross Section
0.045 m², Medium (>0.1 m² and < 1m²)

Expand to show TLE details & history
Last TLE update: 22 hours ago

TLE from 22 hours ago
0 AEROCUBE 18B
1 63222U 25052N   26206.45541733  .00006539  00000-0  26674-3 0  9998
2 63222  97.3931  99.4198 0004722  20.4824 339.6602 15.24759280 75727
Epoch: 2026-07-25T10:55Z
TLE epoch observation values (Epoch: 2026-07-25T10:55:48.057Z)
Latitude
-0.00004°
Longitude
-7.69788°
Altitude
491.563 km
Speed
7.621 km/s
True Right ascension
06h 37m 40s
True Declination
0° 00' 00"
Sunlit
Object was in daylight at epoch
Visualization orbit readout
Latitude
Unknown
Longitude
Unknown
Altitude
Unknown
Speed
Unknown
Apparent Right ascension
Unknown
Apparent Declination
Unknown
Sunlit
N/A
Visualization observer readout
Local Sidereal Time
22:11:09
Azimuth
Unknown
Elevation
Unknown
Doppler factor
Unknown
Orbital elements
Apogee altitude
491.71 km
Perigee altitude
485.225 km
Semi-major axis
6,866.604 km
Eccentricity
0.00047
Inclination
97.3931°
RAAN
99.4198°
Arg. of periapsis
20.4824°
True anomaly
339.64138°
Mean anomaly
339.6602°
Eccentric anomaly
339.65079°
Mean motion
3.81443 °/min
Orbital period
94.38 mins
BSTAR
0.00026674
Loading maneuver chart data...
Computing Atmospheric mass density...
Loading historical data...
Loading historical data...
Loading historical data...
Loading historical data...
Loading historical data...
Loading historical data...
Loading historical data...

Documentation

Showing up to 5 results
|